Tracking 27420 objects as of 29-May-2023
HD Live streaming from Space Station
objects crossing your sky now

FREGAT DEB

Track FREGAT DEB now!
10-day predictions


NORAD ID: 46406
Int'l Code: 2011-037LK
Perigee: 788.7 km
Apogee: 4,448.3 km
Inclination: 51.6 °
Period: 141.4 minutes
Semi major axis: 8989 km
RCS: Unknown
Launch date: July 18, 2011
Source: Commonwealth of Independent States (former USSR) (CIS)
Launch site: TYURATAM MISSILE AND SPACE COMPLEX (TTMTR)

Note: This is SATELLITE DEBRIS
Your satellite tracking list
Your tracking list is empty




NASA's NSSDC Master Catalog

Two Line Element Set (TLE):
1 46406U 11037LM  23146.93508389  .00000862  00000-0  27093-2 0  9992
2 46406  51.5835 357.9603 2035451 217.6414 126.3214 10.18587604104988
Source of the keplerian elements: AFSPC